Погода в Семикине

Россия / Тамбовская область     53°08′15″N   41°34′06″E
темп.,
°C
ветер,
м/с
пор.,
м/с
влажн.,
%
обл.,
%
осадки,
мм/ч
давл.,
гПа
погр.,
м
27 октября, ср
ср2700:00+3юз61458100 0.0 1026376
03:00+3юз61357100 0.0 1025366
06:00+2юз61358100 0.0 1024344
09:00+3юз61557100 0.0 1023447
12:00+7юз8134597 0.0 1021715
15:00+9юз8143836 0.0 1019973
18:00+7юз7154297 0.0 1018708
21:00+7зюз71457100 0.0 1018851
28 октября, чт
чт2800:00+7з5107383 0.0 1018600
03:00+6з4982100 0.0 1018474
06:00+4юз4994100 0.0 1018204
09:00+6юз51082100 0.0 1017367
12:00+9юз71166100 0.0 1016712
15:00+8юз71377100 0.4 1014824
18:00+7зюз61192100 1.4 1014583
21:00+7з4994100 2.3 1014411
29 октября, пт
пт2900:00+8с5993100 0.7 1017555
03:00+7ссв6108781 0.8 1021710
06:00+6ссв61082100 0.0 1024608
09:00+6ссв57808 0.0 1028508
12:00+7ссв34665 0.0 1030740
15:00+7ссв22595 0.0 1031736
18:00+4всв22705 0.0 103212
21:00+3ю22705 0.0 103315
30 октября, сб
сб3000:00+2юз33820 0.0 103353
03:00+2юз33865 0.0 103450
06:00+2зюз35885 0.0 103484
09:00+4зюз378051 0.0 1035183
12:00+8зюз56605 0.0 1034451
15:00+9зюз46585 0.0 1034528
18:00+6юз36735 0.0 1034100
21:00+5юз36755 0.0 1034115
31 октября, вс
вс3100:00+4юз36785 0.0 1034109
03:00+3юз36825 0.0 1034111
06:00+2юз36845 0.0 1034103
09:00+4юз37735 0.0 1034189
12:00+9юз46505 0.0 1033429
15:00+10юз47455 0.0 1032483
18:00+6ююз35560 0.0 103267
21:00+5ююз36560 0.0 103298